Tracking 28790 objects as of 19-Apr-2024
HD Live streaming from Space Station
objects crossing your sky now

SL-12 R/B(2)

Track SL-12 R/B(2) now!


NORAD ID: 28466
Int'l Code: 2004-043D
Perigee: 35,787.4 km
Apogee: 35,863.7 km
Inclination: 12.5 °
Period: 1,437.7 minutes
Semi major axis: 42196 km
RCS: 1.9953 m2 (large)
Launch date: October 29, 2004
Source: Commonwealth of Independent States (former USSR) (CIS)
Launch site: TYURATAM MISSILE AND SPACE COMPLEX (TTMTR)

Note: This is a ROCKET BODY
Your satellite tracking list
Your tracking list is empty




NASA's NSSDC Master Catalog

Two Line Element Set (TLE):
1 28466U 04043D   24109.55744686 -.00000260  00000-0  00000-0 0  9997
2 28466  12.4538  21.9616 0009045 127.6433  45.6058  1.00158329 71207
Source of the keplerian elements: AFSPC